Time,TemperatureF,DewpointF,PressureIn,WindDirection,WindDirectionDegrees,WindSpeedMPH,WindSpeedGustMPH,Humidity,HourlyPrecipIn,Conditions,Clouds,dailyrainin,SoftwareType,DateUTC
2013-05-26 00:01:00,42.3,41.0,29.90,North,360,9.0,10.0,95,0.04,,,1.19,Wunderground v.1.15,2013-05-26 04:01:00,
2013-05-26 00:02:00,42.3,40.7,29.90,North,355,9.0,10.0,94,0.04,,,1.19,Wunderground v.1.15,2013-05-26 04:02:00,
2013-05-26 00:03:00,42.3,41.0,29.90,North,9,5.0,10.0,95,0.04,,,1.19,Wunderground v.1.15,2013-05-26 04:03:00,
2013-05-26 00:07:00,42.3,41.0,29.90,North,355,13.0,16.0,95,0.04,,,1.19,Wunderground v.1.15,2013-05-26 04:07:00,
2013-05-26 00:12:00,42.3,41.0,29.90,North,360,13.0,13.0,95,0.04,,,1.20,Wunderground v.1.15,2013-05-26 04:12:00,
2013-05-26 00:16:00,42.3,41.0,29.90,North,9,9.0,16.0,95,0.10,,,1.21,Wunderground v.1.15,2013-05-26 04:16:00,
2013-05-26 00:21:00,42.5,41.2,29.90,North,360,15.0,15.0,95,0.11,,,1.22,Wunderground v.1.15,2013-05-26 04:21:00,
2013-05-26 00:27:00,42.5,41.2,29.89,North,355,16.0,17.0,95,0.16,,,1.23,Wunderground v.1.15,2013-05-26 04:27:00,
2013-05-26 00:32:00,42.5,41.2,29.89,North,11,15.0,15.0,95,0.12,,,1.24,Wunderground v.1.15,2013-05-26 04:32:00,
2013-05-26 00:38:00,42.6,41.3,29.89,North,355,16.0,16.0,95,0.12,,,1.25,Wunderground v.1.15,2013-05-26 04:38:00,
2013-05-26 00:43:00,42.5,41.2,29.89,NNE,13,14.0,16.0,95,0.07,,,1.26,Wunderground v.1.15,2013-05-26 04:43:00,
2013-05-26 00:48:00,42.6,41.3,29.89,NNW,345,15.0,18.0,95,0.10,,,1.27,Wunderground v.1.15,2013-05-26 04:48:00,
2013-05-26 00:54:00,42.6,41.3,29.89,North,5,11.0,13.0,95,0.11,,,1.28,Wunderground v.1.15,2013-05-26 04:54:00,
2013-05-26 00:59:00,42.6,41.3,29.89,NNW,343,7.0,17.0,95,0.16,,,1.29,Wunderground v.1.15,2013-05-26 04:59:00,
2013-05-26 01:05:00,42.6,41.3,29.89,NNW,333,6.0,16.0,95,0.18,,,1.31,Wunderground v.1.15,2013-05-26 05:05:00,
2013-05-26 01:10:00,42.6,41.3,29.89,North,355,9.0,10.0,95,0.22,,,1.32,Wunderground v.1.15,2013-05-26 05:10:00,
2013-05-26 01:15:00,42.6,41.3,29.89,NNW,336,6.0,11.0,95,0.14,,,1.33,Wunderground v.1.15,2013-05-26 05:15:00,
2013-05-26 01:20:00,42.5,41.2,29.89,North,349,7.0,9.0,95,0.09,,,1.34,Wunderground v.1.15,2013-05-26 05:20:00,
2013-05-26 01:26:00,42.6,41.3,29.89,NNW,338,6.0,12.0,95,0.14,,,1.36,Wunderground v.1.15,2013-05-26 05:26:00,
2013-05-26 01:32:00,42.5,41.2,29.88,North,355,6.0,19.0,95,0.37,,,1.38,Wunderground v.1.15,2013-05-26 05:32:00,
2013-05-26 01:37:00,42.6,41.3,29.88,North,355,6.0,19.0,95,0.17,,,1.39,Wunderground v.1.15,2013-05-26 05:37:00,
2013-05-26 01:42:00,42.6,41.3,29.88,NNW,336,2.0,11.0,95,0.14,,,1.40,Wunderground v.1.15,2013-05-26 05:42:00,
2013-05-26 01:48:00,42.5,41.2,29.88,North,355,9.0,15.0,95,0.11,,,1.41,Wunderground v.1.15,2013-05-26 05:48:00,
2013-05-26 01:53:00,42.3,41.0,29.88,North,5,4.0,10.0,95,0.20,,,1.43,Wunderground v.1.15,2013-05-26 05:53:00,
2013-05-26 01:58:00,42.5,41.4,29.88,NNW,338,10.0,15.0,96,0.15,,,1.44,Wunderground v.1.15,2013-05-26 05:58:00,
2013-05-26 02:03:00,42.6,41.5,29.88,NNE,17,15.0,20.0,96,0.13,,,1.45,Wunderground v.1.15,2013-05-26 06:03:00,
2013-05-26 02:08:00,42.5,41.2,29.88,NW,305,10.0,24.0,95,0.15,,,1.46,Wunderground v.1.15,2013-05-26 06:08:00,
2013-05-26 02:13:00,42.5,41.2,29.88,NNW,342,11.0,24.0,95,0.13,,,1.47,Wunderground v.1.15,2013-05-26 06:13:00,
2013-05-26 02:18:00,42.3,41.0,29.88,North,5,21.0,24.0,95,0.20,,,1.49,Wunderground v.1.15,2013-05-26 06:18:00,
2013-05-26 02:23:00,42.3,41.0,29.88,NNE,13,7.0,22.0,95,0.12,,,1.50,Wunderground v.1.15,2013-05-26 06:23:00,
2013-05-26 02:28:00,42.2,40.9,29.87,North,355,7.0,23.0,95,0.16,,,1.51,Wunderground v.1.15,2013-05-26 06:28:00,
2013-05-26 02:33:00,42.2,40.9,29.87,North,355,7.0,13.0,95,0.11,,,1.52,Wunderground v.1.15,2013-05-26 06:33:00,
2013-05-26 02:38:00,42.3,41.0,29.87,NNW,336,10.0,16.0,95,0.13,,,1.53,Wunderground v.1.15,2013-05-26 06:38:00,
2013-05-26 02:43:00,42.3,41.0,29.87,NNW,338,12.0,19.0,95,0.09,,,1.53,Wunderground v.1.15,2013-05-26 06:43:00,
2013-05-26 02:48:00,42.5,41.2,29.87,North,350,6.0,19.0,95,0.05,,,1.53,Wunderground v.1.15,2013-05-26 06:48:00,
2013-05-26 02:53:00,42.5,41.2,29.87,NNW,332,16.0,16.0,95,0.05,,,1.54,Wunderground v.1.15,2013-05-26 06:53:00,
2013-05-26 02:58:00,42.5,41.2,29.87,NW,318,10.0,19.0,95,0.05,,,1.54,Wunderground v.1.15,2013-05-26 06:58:00,
2013-05-26 03:03:00,42.5,41.2,29.87,NNW,345,3.0,13.0,95,0.05,,,1.55,Wunderground v.1.15,2013-05-26 07:03:00,
2013-05-26 03:08:00,42.3,41.0,29.87,NNW,336,7.0,21.0,95,0.05,,,1.55,Wunderground v.1.15,2013-05-26 07:08:00,
2013-05-26 03:13:00,42.3,41.0,29.87,NNW,335,13.0,20.0,95,0.07,,,1.56,Wunderground v.1.15,2013-05-26 07:13:00,
2013-05-26 03:19:00,42.3,41.0,29.87,NNW,348,7.0,20.0,95,0.07,,,1.57,Wunderground v.1.15,2013-05-26 07:19:00,
2013-05-26 03:24:00,42.3,41.0,29.87,North,360,4.0,16.0,95,0.40,,,1.59,Wunderground v.1.15,2013-05-26 07:24:00,
2013-05-26 03:29:00,42.3,41.0,29.86,North,5,3.0,16.0,95,0.17,,,1.60,Wunderground v.1.15,2013-05-26 07:29:00,
2013-05-26 03:34:00,42.3,41.0,29.86,NNW,335,8.0,19.0,95,0.08,,,1.60,Wunderground v.1.15,2013-05-26 07:34:00,
2013-05-26 03:39:00,42.3,41.0,29.86,North,11,16.0,19.0,95,0.06,,,1.61,Wunderground v.1.15,2013-05-26 07:39:00,
2013-05-26 03:44:00,42.3,41.0,29.86,North,355,6.0,16.0,95,0.06,,,1.61,Wunderground v.1.15,2013-05-26 07:44:00,
2013-05-26 03:49:00,42.3,41.0,29.86,North,355,11.0,16.0,95,0.07,,,1.62,Wunderground v.1.15,2013-05-26 07:49:00,
2013-05-26 03:54:00,42.2,41.1,29.86,North,5,3.0,17.0,96,0.09,,,1.63,Wunderground v.1.15,2013-05-26 07:54:00,
2013-05-26 03:59:00,42.3,41.2,29.86,North,349,7.0,17.0,96,0.09,,,1.63,Wunderground v.1.15,2013-05-26 07:59:00,
2013-05-26 04:04:00,42.3,41.2,29.86,North,360,2.0,22.0,96,0.08,,,1.64,Wunderground v.1.15,2013-05-26 08:04:00,
2013-05-26 04:09:00,42.3,41.2,29.86,NNE,18,9.0,22.0,96,0.06,,,1.64,Wunderground v.1.15,2013-05-26 08:09:00,
2013-05-26 04:14:00,42.3,41.2,29.86,North,360,6.0,19.0,96,0.06,,,1.65,Wunderground v.1.15,2013-05-26 08:14:00,
2013-05-26 04:19:00,42.3,41.2,29.86,NNW,341,4.0,19.0,96,0.06,,,1.65,Wunderground v.1.15,2013-05-26 08:19:00,
2013-05-26 04:24:00,42.3,41.2,29.86,NNW,335,6.0,18.0,96,0.04,,,1.65,Wunderground v.1.15,2013-05-26 08:24:00,
2013-05-26 04:29:00,42.5,41.2,29.86,North,350,10.0,19.0,95,0.04,,,1.66,Wunderground v.1.15,2013-05-26 08:29:00,
2013-05-26 04:34:00,42.5,41.2,29.86,North,351,6.0,15.0,95,0.04,,,1.66,Wunderground v.1.15,2013-05-26 08:34:00,
2013-05-26 04:39:00,42.5,41.2,29.86,North,355,8.0,15.0,95,0.04,,,1.66,Wunderground v.1.15,2013-05-26 08:39:00,
2013-05-26 04:44:00,42.5,41.2,29.87,NNW,338,2.0,19.0,95,0.00,,,0.00,Wunderground v.1.15,2013-05-26 08:44:00,
2013-05-26 04:49:00,42.5,41.2,29.87,NNW,333,6.0,19.0,95,0.00,,,0.00,Wunderground v.1.15,2013-05-26 08:49:00,
2013-05-26 04:54:00,42.6,41.3,29.87,North,355,13.0,17.0,95,0.00,,,0.00,Wunderground v.1.15,2013-05-26 08:54:00,
2013-05-26 04:59:00,42.6,41.3,29.87,NNW,340,3.0,22.0,95,0.00,,,0.00,Wunderground v.1.15,2013-05-26 08:59:00,
2013-05-26 05:04:00,42.6,41.3,29.87,NNW,347,4.0,11.0,95,0.00,,,0.00,Wunderground v.1.15,2013-05-26 09:04:00,
2013-05-26 05:09:00,42.6,41.3,29.87,North,10,13.0,16.0,95,0.00,,,0.00,Wunderground v.1.15,2013-05-26 09:09:00,
2013-05-26 05:14:00,42.6,41.3,29.87,North,360,4.0,20.0,95,0.00,,,0.00,Wunderground v.1.15,2013-05-26 09:14:00,
2013-05-26 05:19:00,42.6,41.3,29.87,North,355,3.0,20.0,95,0.00,,,0.00,Wunderground v.1.15,2013-05-26 09:19:00,
2013-05-26 05:24:00,42.6,41.3,29.87,NW,322,6.0,13.0,95,0.00,,,0.01,Wunderground v.1.15,2013-05-26 09:24:00,
2013-05-26 05:29:00,42.6,41.3,29.87,North,355,3.0,13.0,95,0.10,,,0.02,Wunderground v.1.15,2013-05-26 09:29:00,
2013-05-26 05:34:00,42.6,41.3,29.87,NNW,347,3.0,10.0,95,0.08,,,0.02,Wunderground v.1.15,2013-05-26 09:34:00,
2013-05-26 05:39:00,42.6,41.3,29.87,NNW,337,9.0,15.0,95,0.05,,,0.03,Wunderground v.1.15,2013-05-26 09:39:00,
2013-05-26 05:44:00,42.6,41.3,29.87,North,350,12.0,16.0,95,0.05,,,0.03,Wunderground v.1.15,2013-05-26 09:44:00,
2013-05-26 05:49:00,42.6,41.3,29.87,NNW,342,11.0,20.0,95,0.05,,,0.03,Wunderground v.1.15,2013-05-26 09:49:00,
2013-05-26 05:54:00,42.6,41.3,29.87,North,360,4.0,20.0,95,0.04,,,0.03,Wunderground v.1.15,2013-05-26 09:54:00,
2013-05-26 05:59:00,42.6,41.3,29.88,North,9,4.0,20.0,95,0.00,,,0.03,Wunderground v.1.15,2013-05-26 09:59:00,
2013-05-26 06:04:00,42.6,41.3,29.88,NNW,331,6.0,15.0,95,0.00,,,0.03,Wunderground v.1.15,2013-05-26 10:04:00,
2013-05-26 06:09:00,42.6,41.3,29.88,NW,325,9.0,20.0,95,0.00,,,0.03,Wunderground v.1.15,2013-05-26 10:09:00,
2013-05-26 06:14:00,42.8,41.5,29.88,NNW,329,8.0,16.0,95,0.00,,,0.03,Wunderground v.1.15,2013-05-26 10:14:00,
2013-05-26 06:19:00,42.8,41.5,29.88,NW,325,5.0,22.0,95,0.00,,,0.04,Wunderground v.1.15,2013-05-26 10:19:00,
2013-05-26 06:24:00,42.8,41.5,29.88,NNW,344,6.0,18.0,95,0.00,,,0.04,Wunderground v.1.15,2013-05-26 10:24:00,
2013-05-26 06:29:00,42.8,41.2,29.88,North,351,6.0,20.0,94,0.00,,,0.04,Wunderground v.1.15,2013-05-26 10:29:00,
2013-05-26 06:34:00,42.8,41.2,29.88,NNW,334,5.0,20.0,94,0.00,,,0.04,Wunderground v.1.15,2013-05-26 10:34:00,
2013-05-26 06:39:00,42.8,41.2,29.88,NNE,14,16.0,20.0,94,0.00,,,0.04,Wunderground v.1.15,2013-05-26 10:39:00,
2013-05-26 06:44:00,42.8,41.2,29.89,WNW,297,7.0,19.0,94,0.00,,,0.04,Wunderground v.1.15,2013-05-26 10:44:00,
2013-05-26 06:49:00,42.8,41.2,29.89,NNW,346,7.0,22.0,94,0.00,,,0.04,Wunderground v.1.15,2013-05-26 10:49:00,
2013-05-26 06:54:00,42.8,40.9,29.89,NNW,328,23.0,23.0,93,0.00,,,0.04,Wunderground v.1.15,2013-05-26 10:54:00,
2013-05-26 06:59:00,42.8,40.9,29.89,North,350,13.0,23.0,93,0.00,,,0.04,Wunderground v.1.15,2013-05-26 10:59:00,
2013-05-26 07:04:00,42.8,40.9,29.89,North,355,15.0,25.0,93,0.00,,,0.04,Wunderground v.1.15,2013-05-26 11:04:00,
2013-05-26 07:09:00,42.9,41.0,29.89,North,360,8.0,25.0,93,0.00,,,0.04,Wunderground v.1.15,2013-05-26 11:09:00,
2013-05-26 07:14:00,42.9,41.0,29.89,NW,319,10.0,21.0,93,0.00,,,0.04,Wunderground v.1.15,2013-05-26 11:14:00,
2013-05-26 07:19:00,43.2,41.3,29.89,NNW,344,11.0,21.0,93,0.00,,,0.04,Wunderground v.1.15,2013-05-26 11:19:00,
2013-05-26 07:24:00,43.2,41.3,29.89,NNW,327,5.0,18.0,93,0.00,,,0.04,Wunderground v.1.15,2013-05-26 11:24:00,
2013-05-26 07:29:00,43.3,41.4,29.90,NNW,336,4.0,19.0,93,0.00,,,0.04,Wunderground v.1.15,2013-05-26 11:29:00,
2013-05-26 07:34:00,43.2,41.3,29.90,North,355,9.0,20.0,93,0.00,,,0.04,Wunderground v.1.15,2013-05-26 11:34:00,
2013-05-26 07:39:00,43.1,40.9,29.90,NNW,327,5.0,23.0,92,0.00,,,0.04,Wunderground v.1.15,2013-05-26 11:39:00,
2013-05-26 07:44:00,43.1,40.9,29.90,NNW,336,7.0,20.0,92,0.00,,,0.04,Wunderground v.1.15,2013-05-26 11:44:00,
2013-05-26 07:50:00,43.1,40.9,29.90,NNW,327,9.0,9.0,92,0.00,,,0.04,Wunderground v.1.15,2013-05-26 11:50:00,
2013-05-26 07:55:00,43.1,40.9,29.90,NNW,342,6.0,18.0,92,0.00,,,0.04,Wunderground v.1.15,2013-05-26 11:55:00,
2013-05-26 08:00:00,43.1,40.9,29.91,North,360,6.0,7.0,92,0.00,,,0.04,Wunderground v.1.15,2013-05-26 12:00:00,
2013-05-26 08:05:00,43.2,41.0,29.91,NNW,329,5.0,17.0,92,0.00,,,0.04,Wunderground v.1.15,2013-05-26 12:05:00,
2013-05-26 08:10:00,43.2,40.8,29.91,NNW,342,7.0,8.0,91,0.00,,,0.04,Wunderground v.1.15,2013-05-26 12:10:00,
2013-05-26 08:15:00,43.2,40.8,29.91,North,5,20.0,22.0,91,0.00,,,0.04,Wunderground v.1.15,2013-05-26 12:15:00,
2013-05-26 08:20:00,43.1,40.4,29.91,NNW,342,4.0,9.0,90,0.00,,,0.04,Wunderground v.1.15,2013-05-26 12:20:00,
2013-05-26 08:25:00,43.2,40.8,29.91,NNW,335,9.0,18.0,91,0.00,,,0.05,Wunderground v.1.15,2013-05-26 12:25:00,
2013-05-26 08:30:00,43.1,40.7,29.92,NNW,331,19.0,19.0,91,0.00,,,0.05,Wunderground v.1.15,2013-05-26 12:30:00,
2013-05-26 08:35:00,42.9,40.5,29.92,NNW,346,10.0,19.0,91,0.00,,,0.05,Wunderground v.1.15,2013-05-26 12:35:00,
2013-05-26 08:40:00,42.6,40.2,29.92,NNW,338,16.0,20.0,91,0.00,,,0.05,Wunderground v.1.15,2013-05-26 12:40:00,
2013-05-26 08:45:00,42.5,40.1,29.93,NW,314,11.0,20.0,91,0.00,,,0.06,Wunderground v.1.15,2013-05-26 12:45:00,
2013-05-26 08:50:00,42.6,40.2,29.93,NW,321,14.0,16.0,91,0.00,,,0.06,Wunderground v.1.15,2013-05-26 12:50:00,
2013-05-26 08:55:00,42.6,40.2,29.93,NNW,345,10.0,20.0,91,0.00,,,0.06,Wunderground v.1.15,2013-05-26 12:55:00,
2013-05-26 09:00:00,42.8,40.4,29.93,NW,320,4.0,8.0,91,0.00,,,0.06,Wunderground v.1.15,2013-05-26 13:00:00,
2013-05-26 09:05:00,42.9,40.5,29.93,NNW,338,2.0,19.0,91,0.00,,,0.06,Wunderground v.1.15,2013-05-26 13:05:00,
2013-05-26 09:10:00,42.9,40.5,29.93,ESE,119,6.0,11.0,91,0.00,,,0.06,Wunderground v.1.15,2013-05-26 13:10:00,
2013-05-26 09:15:00,43.1,40.7,29.93,NNW,337,3.0,16.0,91,0.00,,,0.06,Wunderground v.1.15,2013-05-26 13:15:00,
2013-05-26 09:20:00,42.9,40.5,29.93,WNW,293,6.0,14.0,91,0.00,,,0.07,Wunderground v.1.15,2013-05-26 13:20:00,
2013-05-26 09:25:00,43.1,40.7,29.93,NNW,343,1.0,14.0,91,0.00,,,0.07,Wunderground v.1.15,2013-05-26 13:25:00,
2013-05-26 09:30:00,43.2,40.8,29.93,NNW,330,3.0,7.0,91,0.00,,,0.07,Wunderground v.1.15,2013-05-26 13:30:00,
2013-05-26 09:35:00,43.3,40.8,29.93,NW,326,7.0,19.0,91,0.00,,,0.07,Wunderground v.1.15,2013-05-26 13:35:00,
2013-05-26 09:40:00,43.1,40.4,29.93,NW,321,7.0,9.0,90,0.00,,,0.07,Wunderground v.1.15,2013-05-26 13:40:00,
2013-05-26 09:45:00,43.2,40.5,29.93,NNW,346,6.0,21.0,90,0.00,,,0.07,Wunderground v.1.15,2013-05-26 13:45:00,
2013-05-26 09:50:00,43.8,41.3,29.93,NNW,335,11.0,11.0,91,0.00,,,0.07,Wunderground v.1.15,2013-05-26 13:50:00,
2013-05-26 09:55:00,43.8,41.1,29.93,NW,325,6.0,18.0,90,0.00,,,0.07,Wunderground v.1.15,2013-05-26 13:55:00,
2013-05-26 10:00:00,43.9,41.2,29.94,NNW,346,2.0,8.0,90,0.00,,,0.07,Wunderground v.1.15,2013-05-26 14:00:00,
2013-05-26 10:05:00,44.2,41.5,29.94,NNW,343,6.0,16.0,90,0.00,,,0.07,Wunderground v.1.15,2013-05-26 14:05:00,
2013-05-26 10:10:00,44.6,42.1,29.94,NNE,15,5.0,8.0,91,0.00,,,0.07,Wunderground v.1.15,2013-05-26 14:10:00,
2013-05-26 10:15:00,45.1,42.3,29.94,NW,319,13.0,16.0,90,0.00,,,0.07,Wunderground v.1.15,2013-05-26 14:15:00,
2013-05-26 10:20:00,45.2,42.4,29.94,NNW,347,4.0,7.0,90,0.00,,,0.07,Wunderground v.1.15,2013-05-26 14:20:00,
2013-05-26 10:25:00,45.2,41.9,29.94,NNW,340,13.0,17.0,88,0.00,,,0.07,Wunderground v.1.15,2013-05-26 14:25:00,
2013-05-26 10:30:00,45.4,41.5,29.94,NW,326,10.0,10.0,86,0.00,,,0.07,Wunderground v.1.15,2013-05-26 14:30:00,
2013-05-26 10:35:00,45.4,41.5,29.94,NNW,330,7.0,18.0,86,0.00,,,0.07,Wunderground v.1.15,2013-05-26 14:35:00,
2013-05-26 10:40:00,45.7,41.8,29.94,NNW,346,4.0,15.0,86,0.00,,,0.07,Wunderground v.1.15,2013-05-26 14:40:00,
2013-05-26 10:45:00,45.8,41.5,29.94,NNW,337,4.0,18.0,85,0.00,,,0.07,Wunderground v.1.15,2013-05-26 14:45:00,
2013-05-26 10:51:00,46.0,41.7,29.94,NNW,344,3.0,10.0,85,0.00,,,0.07,Wunderground v.1.15,2013-05-26 14:51:00,
2013-05-26 10:56:00,45.7,41.4,29.94,NNW,331,4.0,16.0,85,0.00,,,0.07,Wunderground v.1.15,2013-05-26 14:56:00,
2013-05-26 11:01:00,45.8,41.9,29.94,NNW,342,6.0,14.0,86,0.00,,,0.07,Wunderground v.1.15,2013-05-26 15:01:00,
2013-05-26 11:06:00,45.8,41.5,29.94,NNW,333,11.0,14.0,85,0.00,,,0.07,Wunderground v.1.15,2013-05-26 15:06:00,
2013-05-26 11:11:00,46.1,41.8,29.94,NNW,340,4.0,16.0,85,0.00,,,0.07,Wunderground v.1.15,2013-05-26 15:11:00,
2013-05-26 11:16:00,46.4,42.1,29.94,North,355,10.0,16.0,85,0.00,,,0.07,Wunderground v.1.15,2013-05-26 15:16:00,
2013-05-26 11:21:00,46.5,42.2,29.94,NNW,338,6.0,12.0,85,0.00,,,0.07,Wunderground v.1.15,2013-05-26 15:21:00,
2013-05-26 11:26:00,46.5,41.9,29.94,NW,321,9.0,18.0,84,0.00,,,0.07,Wunderground v.1.15,2013-05-26 15:26:00,
2013-05-26 11:31:00,46.8,41.9,29.95,WNW,287,17.0,20.0,83,0.00,,,0.07,Wunderground v.1.15,2013-05-26 15:31:00,
2013-05-26 11:36:00,47.1,41.6,29.95,North,351,3.0,20.0,81,0.00,,,0.07,Wunderground v.1.15,2013-05-26 15:36:00,
2013-05-26 11:41:00,48.2,43.3,29.95,North,5,8.0,14.0,83,0.00,,,0.07,Wunderground v.1.15,2013-05-26 15:41:00,
2013-05-26 11:46:00,47.7,41.8,29.95,NW,323,15.0,21.0,80,0.00,,,0.07,Wunderground v.1.15,2013-05-26 15:46:00,
2013-05-26 11:51:00,47.4,42.2,29.95,NNW,346,18.0,19.0,82,0.00,,,0.07,Wunderground v.1.15,2013-05-26 15:51:00,
2013-05-26 11:56:00,48.0,42.4,29.95,North,355,6.0,19.0,81,0.00,,,0.07,Wunderground v.1.15,2013-05-26 15:56:00,
2013-05-26 12:01:00,48.0,42.1,29.96,North,351,4.0,12.0,80,0.00,,,0.07,Wunderground v.1.15,2013-05-26 16:01:00,
2013-05-26 12:07:00,47.9,42.0,29.96,NNW,331,12.0,18.0,80,0.00,,,0.07,Wunderground v.1.15,2013-05-26 16:07:00,
2013-05-26 12:12:00,48.6,42.4,29.96,NNW,331,6.0,17.0,79,0.00,,,0.07,Wunderground v.1.15,2013-05-26 16:12:00,
2013-05-26 12:17:00,47.9,41.7,29.96,NNW,343,3.0,23.0,79,0.00,,,0.07,Wunderground v.1.15,2013-05-26 16:17:00,
2013-05-26 12:22:00,47.4,42.2,29.96,NNW,346,9.0,14.0,82,0.00,,,0.07,Wunderground v.1.15,2013-05-26 16:22:00,
2013-05-26 12:27:00,47.6,42.7,29.96,North,355,12.0,17.0,83,0.00,,,0.07,Wunderground v.1.15,2013-05-26 16:27:00,
2013-05-26 12:32:00,48.3,43.1,29.96,North,355,18.0,18.0,82,0.00,,,0.07,Wunderground v.1.15,2013-05-26 16:32:00,
2013-05-26 12:37:00,48.2,42.6,29.96,NNW,343,15.0,21.0,81,0.00,,,0.07,Wunderground v.1.15,2013-05-26 16:37:00,
2013-05-26 12:42:00,47.1,41.9,29.98,NNE,12,10.0,20.0,82,0.00,,,0.07,Wunderground v.1.15,2013-05-26 16:42:00,
2013-05-26 12:47:00,47.4,42.5,29.98,North,355,10.0,20.0,83,0.00,,,0.07,Wunderground v.1.15,2013-05-26 16:47:00,
2013-05-26 12:52:00,47.7,42.5,29.98,North,9,12.0,15.0,82,0.00,,,0.07,Wunderground v.1.15,2013-05-26 16:52:00,
2013-05-26 12:57:00,47.9,41.7,29.98,North,5,14.0,21.0,79,0.00,,,0.07,Wunderground v.1.15,2013-05-26 16:57:00,
2013-05-26 13:02:00,48.6,42.4,29.98,NW,324,15.0,17.0,79,0.00,,,0.07,Wunderground v.1.15,2013-05-26 17:02:00,
2013-05-26 13:07:00,49.4,42.5,29.98,NNE,16,9.0,17.0,77,0.00,,,0.07,Wunderground v.1.15,2013-05-26 17:07:00,
2013-05-26 13:12:00,49.9,43.0,29.98,North,360,18.0,24.0,77,0.00,,,0.07,Wunderground v.1.15,2013-05-26 17:12:00,
2013-05-26 13:17:00,49.2,41.6,29.98,North,355,5.0,24.0,75,0.00,,,0.07,Wunderground v.1.15,2013-05-26 17:17:00,
2013-05-26 13:22:00,48.9,42.3,29.98,NNE,16,2.0,10.0,78,0.00,,,0.07,Wunderground v.1.15,2013-05-26 17:22:00,
2013-05-26 13:27:00,48.5,41.6,29.98,NNW,346,4.0,18.0,77,0.00,,,0.07,Wunderground v.1.15,2013-05-26 17:27:00,
2013-05-26 13:32:00,48.3,42.4,29.98,North,351,6.0,9.0,80,0.00,,,0.07,Wunderground v.1.15,2013-05-26 17:32:00,
2013-05-26 13:37:00,48.0,42.4,29.98,NNW,336,3.0,15.0,81,0.00,,,0.07,Wunderground v.1.15,2013-05-26 17:37:00,
2013-05-26 13:42:00,47.7,42.8,29.98,NNW,348,3.0,13.0,83,0.00,,,0.07,Wunderground v.1.15,2013-05-26 17:42:00,
2013-05-26 13:48:00,47.3,42.7,29.98,North,355,9.0,16.0,84,0.00,,,0.08,Wunderground v.1.15,2013-05-26 17:48:00,
2013-05-26 13:53:00,46.8,42.8,29.98,NNW,327,10.0,17.0,86,0.00,,,0.08,Wunderground v.1.15,2013-05-26 17:53:00,
2013-05-26 13:58:00,46.7,43.0,29.98,NNW,345,2.0,17.0,87,0.07,,,0.09,Wunderground v.1.15,2013-05-26 17:58:00,
2013-05-26 14:03:00,47.4,44.0,29.98,North,5,5.0,12.0,88,0.06,,,0.09,Wunderground v.1.15,2013-05-26 18:03:00,
2013-05-26 14:08:00,48.3,45.2,29.98,NW,325,5.0,13.0,89,0.04,,,0.09,Wunderground v.1.15,2013-05-26 18:08:00,
2013-05-26 14:13:00,48.5,45.1,29.99,NW,326,9.0,13.0,88,0.00,,,0.09,Wunderground v.1.15,2013-05-26 18:13:00,
2013-05-26 14:18:00,48.6,44.6,29.99,NNW,331,6.0,15.0,86,0.00,,,0.09,Wunderground v.1.15,2013-05-26 18:18:00,
2013-05-26 14:23:00,48.5,44.2,29.99,NNW,336,4.0,12.0,85,0.00,,,0.09,Wunderground v.1.15,2013-05-26 18:23:00,
2013-05-26 14:28:00,48.0,43.4,30.00,NNW,329,7.0,15.0,84,0.00,,,0.09,Wunderground v.1.15,2013-05-26 18:28:00,
2013-05-26 14:33:00,47.9,43.3,30.00,NNW,331,7.0,16.0,84,0.00,,,0.09,Wunderground v.1.15,2013-05-26 18:33:00,
2013-05-26 14:38:00,47.6,43.0,30.00,NNW,346,9.0,16.0,84,0.00,,,0.09,Wunderground v.1.15,2013-05-26 18:38:00,
2013-05-26 14:43:00,47.4,43.1,30.00,NNW,343,9.0,14.0,85,0.00,,,0.09,Wunderground v.1.15,2013-05-26 18:43:00,
2013-05-26 14:48:00,47.1,42.8,30.00,North,5,10.0,15.0,85,0.00,,,0.09,Wunderground v.1.15,2013-05-26 18:48:00,
2013-05-26 14:53:00,47.1,42.8,30.00,NNW,332,3.0,14.0,85,0.00,,,0.09,Wunderground v.1.15,2013-05-26 18:53:00,
2013-05-26 14:58:00,47.0,42.7,30.01,NNW,337,6.0,14.0,85,0.00,,,0.09,Wunderground v.1.15,2013-05-26 18:58:00,
2013-05-26 15:03:00,46.8,42.5,30.01,NNW,338,6.0,14.0,85,0.00,,,0.09,Wunderground v.1.15,2013-05-26 19:03:00,
2013-05-26 15:08:00,46.7,42.7,30.01,North,350,11.0,15.0,86,0.00,,,0.10,Wunderground v.1.15,2013-05-26 19:08:00,
2013-05-26 15:13:00,46.5,42.5,30.01,North,5,11.0,12.0,86,0.00,,,0.10,Wunderground v.1.15,2013-05-26 19:13:00,
2013-05-26 15:18:00,46.5,42.5,30.01,NNW,329,6.0,12.0,86,0.00,,,0.10,Wunderground v.1.15,2013-05-26 19:18:00,
2013-05-26 15:23:00,46.4,42.4,30.01,North,355,6.0,13.0,86,0.00,,,0.10,Wunderground v.1.15,2013-05-26 19:23:00,
2013-05-26 15:28:00,46.5,42.8,30.02,NNW,327,7.0,13.0,87,0.00,,,0.10,Wunderground v.1.15,2013-05-26 19:28:00,
2013-05-26 15:33:00,46.5,42.8,30.02,NNW,344,2.0,9.0,87,0.00,,,0.11,Wunderground v.1.15,2013-05-26 19:33:00,
2013-05-26 15:38:00,46.7,43.3,30.02,North,355,3.0,9.0,88,0.00,,,0.11,Wunderground v.1.15,2013-05-26 19:38:00,
2013-05-26 15:43:00,46.8,43.4,30.03,NNW,331,1.0,7.0,88,0.00,,,0.11,Wunderground v.1.15,2013-05-26 19:43:00,
2013-05-26 15:48:00,46.8,43.1,30.03,North,349,3.0,10.0,87,0.00,,,0.11,Wunderground v.1.15,2013-05-26 19:48:00,
2013-05-26 15:53:00,46.8,43.1,30.03,NNW,339,2.0,10.0,87,0.00,,,0.11,Wunderground v.1.15,2013-05-26 19:53:00,
2013-05-26 15:58:00,47.0,43.3,30.03,North,350,6.0,10.0,87,0.00,,,0.11,Wunderground v.1.15,2013-05-26 19:58:00,
2013-05-26 16:03:00,47.3,43.6,30.03,NNW,348,4.0,10.0,87,0.00,,,0.11,Wunderground v.1.15,2013-05-26 20:03:00,
2013-05-26 16:08:00,47.4,43.4,30.03,NW,325,10.0,14.0,86,0.00,,,0.11,Wunderground v.1.15,2013-05-26 20:08:00,
2013-05-26 16:13:00,47.6,43.6,30.03,North,355,5.0,9.0,86,0.00,,,0.11,Wunderground v.1.15,2013-05-26 20:13:00,
2013-05-26 16:18:00,47.6,43.9,30.03,NNW,331,7.0,10.0,87,0.00,,,0.11,Wunderground v.1.15,2013-05-26 20:18:00,
2013-05-26 16:23:00,47.6,43.6,30.03,NNW,334,4.0,11.0,86,0.00,,,0.11,Wunderground v.1.15,2013-05-26 20:23:00,
2013-05-26 16:28:00,47.6,43.6,30.04,NNW,345,3.0,11.0,86,0.00,,,0.11,Wunderground v.1.15,2013-05-26 20:28:00,
2013-05-26 16:33:00,47.6,43.6,30.04,NNW,343,0.0,6.0,86,0.00,,,0.11,Wunderground v.1.15,2013-05-26 20:33:00,
2013-05-26 16:38:00,47.7,44.0,30.04,NNW,342,3.0,6.0,87,0.00,,,0.11,Wunderground v.1.15,2013-05-26 20:38:00,
2013-05-26 16:43:00,47.6,43.9,30.04,NNW,339,2.0,7.0,87,0.00,,,0.12,Wunderground v.1.15,2013-05-26 20:43:00,
2013-05-26 16:48:00,47.6,44.2,30.04,NNW,341,3.0,7.0,88,0.00,,,0.12,Wunderground v.1.15,2013-05-26 20:48:00,
2013-05-26 16:53:00,47.6,44.2,30.04,NNW,341,0.0,9.0,88,0.00,,,0.12,Wunderground v.1.15,2013-05-26 20:53:00,
2013-05-26 16:59:00,47.6,44.2,30.05,NNW,342,0.0,9.0,88,0.00,,,0.12,Wunderground v.1.15,2013-05-26 20:59:00,
2013-05-26 17:04:00,47.6,44.5,30.05,North,355,2.0,12.0,89,0.00,,,0.12,Wunderground v.1.15,2013-05-26 21:04:00,
2013-05-26 17:09:00,47.7,44.6,30.05,North,355,2.0,12.0,89,0.00,,,0.12,Wunderground v.1.15,2013-05-26 21:09:00,
2013-05-26 17:14:00,47.7,44.6,30.06,North,351,3.0,6.0,89,0.00,,,0.13,Wunderground v.1.15,2013-05-26 21:14:00,
2013-05-26 17:19:00,47.3,43.9,30.06,NNW,333,3.0,15.0,88,0.13,,,0.14,Wunderground v.1.15,2013-05-26 21:19:00,
2013-05-26 17:24:00,47.3,43.6,30.06,North,5,4.0,13.0,87,0.06,,,0.14,Wunderground v.1.15,2013-05-26 21:24:00,
2013-05-26 17:29:00,47.3,43.6,30.06,NNW,342,4.0,13.0,87,0.04,,,0.14,Wunderground v.1.15,2013-05-26 21:29:00,
2013-05-26 17:34:00,47.3,43.6,30.06,NNW,341,0.0,9.0,87,0.00,,,0.14,Wunderground v.1.15,2013-05-26 21:34:00,
2013-05-26 17:39:00,47.3,43.6,30.06,NNW,341,2.0,9.0,87,0.00,,,0.14,Wunderground v.1.15,2013-05-26 21:39:00,
2013-05-26 17:44:00,47.3,43.9,30.07,NNW,340,3.0,5.0,88,0.00,,,0.14,Wunderground v.1.15,2013-05-26 21:44:00,
2013-05-26 17:49:00,47.4,44.0,30.07,NNW,341,2.0,5.0,88,0.00,,,0.14,Wunderground v.1.15,2013-05-26 21:49:00,
2013-05-26 17:54:00,47.6,44.2,30.07,NNW,341,0.0,3.0,88,0.00,,,0.14,Wunderground v.1.15,2013-05-26 21:54:00,
2013-05-26 17:59:00,47.6,44.2,30.06,NNW,341,0.0,3.0,88,0.00,,,0.14,Wunderground v.1.15,2013-05-26 21:59:00,
2013-05-26 18:04:00,47.9,44.8,30.06,NNW,341,0.0,4.0,89,0.00,,,0.14,Wunderground v.1.15,2013-05-26 22:04:00,
2013-05-26 18:09:00,48.2,44.8,30.06,NNW,340,0.0,7.0,88,0.00,,,0.14,Wunderground v.1.15,2013-05-26 22:09:00,
2013-05-26 18:14:00,48.5,45.1,30.06,NNW,340,3.0,3.0,88,0.00,,,0.14,Wunderground v.1.15,2013-05-26 22:14:00,
2013-05-26 18:20:00,48.6,45.2,30.06,NNW,340,0.0,3.0,88,0.00,,,0.14,Wunderground v.1.15,2013-05-26 22:20:00,
2013-05-26 18:25:00,48.9,45.5,30.06,NNW,340,2.0,3.0,88,0.00,,,0.14,Wunderground v.1.15,2013-05-26 22:25:00,
2013-05-26 18:29:00,49.1,45.7,30.06,NNW,340,0.0,3.0,88,0.00,,,0.14,Wunderground v.1.15,2013-05-26 22:29:00,
2013-05-26 18:34:00,49.4,46.0,30.06,NNW,340,0.0,2.0,88,0.00,,,0.14,Wunderground v.1.15,2013-05-26 22:34:00,
2013-05-26 18:39:00,49.6,46.2,30.06,NNW,340,0.0,2.0,88,0.00,,,0.14,Wunderground v.1.15,2013-05-26 22:39:00,
2013-05-26 18:44:00,49.8,46.1,30.07,NNW,340,1.0,3.0,87,0.00,,,0.14,Wunderground v.1.15,2013-05-26 22:44:00,
2013-05-26 18:50:00,50.1,46.1,30.07,NNW,340,4.0,4.0,86,0.00,,,0.14,Wunderground v.1.15,2013-05-26 22:50:00,
2013-05-26 18:55:00,50.4,46.4,30.07,NNW,340,2.0,4.0,86,0.00,,,0.14,Wunderground v.1.15,2013-05-26 22:55:00,
2013-05-26 19:00:00,49.9,45.3,30.07,NNW,340,1.0,1.0,84,0.00,,,0.14,Wunderground v.1.15,2013-05-26 23:00:00,
2013-05-26 19:05:00,49.6,45.0,30.07,NNW,340,0.0,5.0,84,0.00,,,0.14,Wunderground v.1.15,2013-05-26 23:05:00,
2013-05-26 19:10:00,49.4,45.1,30.07,NNW,340,0.0,1.0,85,0.00,,,0.14,Wunderground v.1.15,2013-05-26 23:10:00,
2013-05-26 19:15:00,49.5,44.9,30.07,NNW,340,0.0,2.0,84,0.00,,,0.14,Wunderground v.1.15,2013-05-26 23:15:00,
2013-05-26 19:20:00,49.9,44.9,30.07,NNW,340,0.0,0.0,83,0.00,,,0.14,Wunderground v.1.15,2013-05-26 23:20:00,
2013-05-26 19:25:00,50.4,45.1,30.07,NNW,340,0.0,2.0,82,0.00,,,0.14,Wunderground v.1.15,2013-05-26 23:25:00,
2013-05-26 19:30:00,50.7,45.7,30.07,NNW,340,0.0,0.0,83,0.00,,,0.14,Wunderground v.1.15,2013-05-26 23:30:00,
2013-05-26 19:35:00,50.7,45.4,30.07,NNW,340,0.0,1.0,82,0.00,,,0.14,Wunderground v.1.15,2013-05-26 23:35:00,
2013-05-26 19:40:00,50.4,45.1,30.07,NNW,340,0.0,0.0,82,0.00,,,0.14,Wunderground v.1.15,2013-05-26 23:40:00,
2013-05-26 19:45:00,50.1,44.8,30.07,NNW,340,0.0,0.0,82,0.00,,,0.14,Wunderground v.1.15,2013-05-26 23:45:00,
2013-05-26 19:50:00,49.9,44.9,30.07,NNW,340,0.0,0.0,83,0.00,,,0.14,Wunderground v.1.15,2013-05-26 23:50:00,
2013-05-26 19:55:00,49.5,44.9,30.07,NNW,340,0.0,0.0,84,0.00,,,0.14,Wunderground v.1.15,2013-05-26 23:55:00,
2013-05-26 20:00:00,49.2,44.9,30.07,NNW,340,0.0,0.0,85,0.00,,,0.14,Wunderground v.1.15,2013-05-27 00:00:00,
2013-05-26 20:05:00,49.1,44.8,30.07,NNW,340,0.0,2.0,85,0.00,,,0.14,Wunderground v.1.15,2013-05-27 00:05:00,
2013-05-26 20:10:00,48.9,44.9,30.07,NNW,340,0.0,0.0,86,0.00,,,0.14,Wunderground v.1.15,2013-05-27 00:10:00,
2013-05-26 20:15:00,48.2,44.5,30.07,NNW,340,0.0,0.0,87,0.00,,,0.14,Wunderground v.1.15,2013-05-27 00:15:00,
2013-05-26 20:20:00,47.6,44.2,30.07,NNW,340,0.0,0.0,88,0.00,,,0.14,Wunderground v.1.15,2013-05-27 00:20:00,
2013-05-26 20:25:00,47.0,43.6,30.07,NNW,340,0.0,0.0,88,0.00,,,0.14,Wunderground v.1.15,2013-05-27 00:25:00,
2013-05-26 20:30:00,46.5,43.4,30.07,NNW,340,0.0,0.0,89,0.00,,,0.14,Wunderground v.1.15,2013-05-27 00:30:00,
2013-05-26 20:35:00,46.1,43.3,30.07,NNW,340,0.0,0.0,90,0.00,,,0.14,Wunderground v.1.15,2013-05-27 00:35:00,
2013-05-26 20:40:00,45.7,42.9,30.07,NNW,340,0.0,0.0,90,0.00,,,0.14,Wunderground v.1.15,2013-05-27 00:40:00,
2013-05-26 20:45:00,45.4,42.9,30.07,NNW,340,0.0,2.0,91,0.00,,,0.14,Wunderground v.1.15,2013-05-27 00:45:00,
2013-05-26 20:50:00,45.4,42.9,30.07,NNW,340,0.0,0.0,91,0.00,,,0.14,Wunderground v.1.15,2013-05-27 00:50:00,
2013-05-26 20:55:00,45.2,43.0,30.07,NNW,340,0.0,0.0,92,0.00,,,0.14,Wunderground v.1.15,2013-05-27 00:55:00,
2013-05-26 21:00:00,45.1,42.9,30.07,NNW,340,0.0,0.0,92,0.00,,,0.14,Wunderground v.1.15,2013-05-27 01:00:00,
2013-05-26 21:05:00,44.6,42.4,30.07,NNW,340,0.0,0.0,92,0.00,,,0.14,Wunderground v.1.15,2013-05-27 01:05:00,
2013-05-26 21:10:00,44.3,42.1,30.07,NNW,340,0.0,0.0,92,0.00,,,0.14,Wunderground v.1.15,2013-05-27 01:10:00,
2013-05-26 21:15:00,44.2,42.3,30.07,NNW,340,0.0,0.0,93,0.00,,,0.14,Wunderground v.1.15,2013-05-27 01:15:00,
2013-05-26 21:20:00,44.3,42.4,30.07,NNW,340,0.0,0.0,93,0.00,,,0.14,Wunderground v.1.15,2013-05-27 01:20:00,
2013-05-26 21:25:00,44.5,42.9,30.07,NNW,340,0.0,1.0,94,0.00,,,0.14,Wunderground v.1.15,2013-05-27 01:25:00,
2013-05-26 21:30:00,44.2,42.6,30.07,NNW,340,2.0,2.0,94,0.00,,,0.14,Wunderground v.1.15,2013-05-27 01:30:00,
2013-05-26 21:35:00,44.3,42.7,30.07,NNW,340,0.0,4.0,94,0.00,,,0.14,Wunderground v.1.15,2013-05-27 01:35:00,
2013-05-26 21:40:00,44.2,42.6,30.07,NNW,340,0.0,0.0,94,0.00,,,0.14,Wunderground v.1.15,2013-05-27 01:40:00,
2013-05-26 21:45:00,43.9,42.3,30.07,NNW,340,0.0,0.0,94,0.00,,,0.14,Wunderground v.1.15,2013-05-27 01:45:00,
2013-05-26 21:50:00,43.8,42.2,30.07,NNW,340,0.0,0.0,94,0.00,,,0.14,Wunderground v.1.15,2013-05-27 01:50:00,
2013-05-26 21:56:00,43.6,42.0,30.07,NNW,340,0.0,2.0,94,0.00,,,0.14,Wunderground v.1.15,2013-05-27 01:56:00,
2013-05-26 22:01:00,42.9,41.3,30.08,NNW,340,0.0,0.0,94,0.00,,,0.14,Wunderground v.1.15,2013-05-27 02:01:00,
2013-05-26 22:06:00,42.5,40.9,30.08,NNW,340,0.0,1.0,94,0.00,,,0.14,Wunderground v.1.15,2013-05-27 02:06:00,
2013-05-26 22:11:00,42.2,40.9,30.08,NNW,340,0.0,0.0,95,0.00,,,0.14,Wunderground v.1.15,2013-05-27 02:11:00,
2013-05-26 22:16:00,42.3,41.0,30.08,NNW,340,0.0,0.0,95,0.00,,,0.14,Wunderground v.1.15,2013-05-27 02:16:00,
2013-05-26 22:21:00,42.6,41.3,30.08,NNW,340,0.0,0.0,95,0.00,,,0.14,Wunderground v.1.15,2013-05-27 02:21:00,
2013-05-26 22:26:00,42.3,41.0,30.08,NNW,340,0.0,1.0,95,0.00,,,0.14,Wunderground v.1.15,2013-05-27 02:26:00,
2013-05-26 22:31:00,42.3,41.0,30.08,NNW,340,0.0,0.0,95,0.00,,,0.14,Wunderground v.1.15,2013-05-27 02:31:00,
2013-05-26 22:36:00,42.3,41.0,30.08,NNW,340,0.0,3.0,95,0.00,,,0.14,Wunderground v.1.15,2013-05-27 02:36:00,
2013-05-26 22:41:00,42.5,41.4,30.08,NNW,340,0.0,1.0,96,0.00,,,0.14,Wunderground v.1.15,2013-05-27 02:41:00,
2013-05-26 22:46:00,42.5,41.2,30.09,NNW,340,0.0,1.0,95,0.00,,,0.14,Wunderground v.1.15,2013-05-27 02:46:00,
2013-05-26 22:51:00,42.6,41.5,30.09,NNW,340,0.0,0.0,96,0.00,,,0.14,Wunderground v.1.15,2013-05-27 02:51:00,
2013-05-26 22:56:00,42.6,41.5,30.09,NNW,340,0.0,2.0,96,0.00,,,0.14,Wunderground v.1.15,2013-05-27 02:56:00,
2013-05-26 23:01:00,42.5,41.4,30.08,NNW,340,0.0,0.0,96,0.00,,,0.14,Wunderground v.1.15,2013-05-27 03:01:00,
2013-05-26 23:06:00,42.5,41.4,30.08,NNW,340,2.0,3.0,96,0.00,,,0.14,Wunderground v.1.15,2013-05-27 03:06:00,
2013-05-26 23:11:00,42.3,41.2,30.08,NNW,340,0.0,0.0,96,0.00,,,0.14,Wunderground v.1.15,2013-05-27 03:11:00,
2013-05-26 23:16:00,42.3,41.2,30.08,NNW,340,0.0,2.0,96,0.00,,,0.14,Wunderground v.1.15,2013-05-27 03:16:00,
2013-05-26 23:21:00,42.2,41.1,30.08,NNW,344,1.0,5.0,96,0.00,,,0.14,Wunderground v.1.15,2013-05-27 03:21:00,
2013-05-26 23:26:00,42.3,41.2,30.08,ENE,61,2.0,6.0,96,0.00,,,0.14,Wunderground v.1.15,2013-05-27 03:26:00,
2013-05-26 23:32:00,42.3,41.2,30.08,ESE,123,2.0,6.0,96,0.00,,,0.14,Wunderground v.1.15,2013-05-27 03:32:00,
2013-05-26 23:37:00,42.2,41.1,30.08,ESE,110,4.0,7.0,96,0.00,,,0.14,Wunderground v.1.15,2013-05-27 03:37:00,
2013-05-26 23:42:00,42.2,41.1,30.08,ESE,117,5.0,5.0,96,0.00,,,0.14,Wunderground v.1.15,2013-05-27 03:42:00,
2013-05-26 23:47:00,42.1,41.0,30.08,SSE,148,1.0,8.0,96,0.00,,,0.14,Wunderground v.1.15,2013-05-27 03:47:00,
2013-05-26 23:52:00,41.9,40.8,30.08,SSE,147,2.0,7.0,96,0.00,,,0.14,Wunderground v.1.15,2013-05-27 03:52:00,
2013-05-26 23:57:00,41.8,40.7,30.08,SE,145,2.0,7.0,96,0.00,,,0.14,Wunderground v.1.15,2013-05-27 03:57:00,